Weather History for Ortonville, MN

Change the Weather History Date:

Wednesday, September 18, 2013

  Actual Average (KAQP) Record (KAQP)
Temperature  
Mean Temperature 73 °F -  
Max Temperature 87 °F 69 °F 93 °F (1998)
Min Temperature 59 °F 45 °F 35 °F (2007)
Cooling Degree Days 8    
Growing Degree Days 23 (Base 50)    
Moisture  
Dew Point 64 °F    
Average Humidity 76    
Maximum Humidity 100    
Minimum Humidity 49    
Precipitation  
Precipitation 0.00 in - - ()
Sea Level Pressure  
Sea Level Pressure 29.68 in    
Wind  
Wind Speed 9 mph (SE)    
Max Wind Speed 16 mph    
Max Gust Speed 21 mph    
Visibility 7 miles    
Events Rain    
Averages and records for this station are not official NWS values.
T = Trace of Precipitation, MM = Missing Value Source: NWS Daily Summary

Daily Weather History Graph

Daily Weather History Graph

Search for Another Location

Airport:

Trip Planner

Search our weather history database for the weather conditions in past years. The results will help you decide how hot, cold, wet, or windy it might be!

Date:

Astronomy

Sep. 18, 2013 Rise Set
Actual Time 7:08 AM CDT 7:30 PM CDT
Civil Twilight 6:38 AM CDT 7:59 PM CDT
Nautical Twilight 6:03 AM CDT 8:34 PM CDT
Astronomical Twilight 5:27 AM CDT 9:10 PM CDT
Moon 6:53 PM CDT (9/18) 6:11 AM CDT (9/18)
Length of Visible Light 13h 21m
Length of Day
12h 22m
Waxing Gibbous, 99% of the Moon is Illuminated
Sep 18
Waxing Gibbous
Sep 19
Full
Sep 26
Last Quarter
Oct 4
New
Oct 11
First Quarter

Hourly Weather History & Observations

Time (CDT) Temp. Heat Index Dew Point Humidity Pressure Visibility Wind Dir Wind Speed Gust Speed Precip Events Conditions
12:13 AM 59.0 °F - 57.2 °F 94% 29.83 in 5.0 mi SE 9.2 mph - N/A   Overcast
12:34 AM 59.0 °F - 57.2 °F 94% 29.82 in 7.0 mi SE 8.1 mph - N/A   Overcast
12:54 AM 60.8 °F - 57.2 °F 88% 29.82 in 7.0 mi SE 9.2 mph - N/A   Overcast
1:13 AM 60.8 °F - 57.2 °F 88% 29.82 in 7.0 mi SE 8.1 mph - N/A   Overcast
1:34 AM 60.8 °F - 57.2 °F 88% 29.81 in 7.0 mi SE 9.2 mph - N/A   Overcast
1:54 AM 60.8 °F - 57.2 °F 88% 29.81 in 7.0 mi SSE 6.9 mph - N/A   Overcast
2:13 AM 60.8 °F - 57.2 °F 88% 29.80 in 7.0 mi SE 8.1 mph - N/A   Overcast
2:34 AM 60.8 °F - 57.2 °F 88% 29.80 in 7.0 mi SE 5.8 mph - N/A   Overcast
2:54 AM 60.8 °F - 57.2 °F 88% 29.79 in 5.0 mi SE 8.1 mph - N/A   Overcast
3:14 AM 60.8 °F - 59.0 °F 94% 29.78 in 5.0 mi SE 9.2 mph - N/A   Overcast
3:34 AM 60.8 °F - 59.0 °F 94% 29.77 in 5.0 mi SE 8.1 mph - N/A   Overcast
3:54 AM 62.6 °F - 59.0 °F 88% 29.76 in 4.0 mi SE 9.2 mph - N/A   Overcast
4:14 AM 62.6 °F - 60.8 °F 94% 29.76 in 2.5 mi SE 8.1 mph - N/A   Overcast
4:34 AM 62.6 °F - 60.8 °F 94% 29.75 in 1.8 mi SE 9.2 mph - N/A   Overcast
4:54 AM 62.6 °F - 59.0 °F 88% 29.74 in 1.2 mi SE 9.2 mph - N/A   Overcast
5:14 AM 62.6 °F - 60.8 °F 94% 29.73 in 1.5 mi SE 10.4 mph - N/A   Overcast
5:34 AM 62.6 °F - 60.8 °F 94% 29.72 in 1.5 mi SE 10.4 mph 16.1 mph N/A   Overcast
5:53 AM 62.6 °F - 60.8 °F 94% 29.72 in 1.2 mi SE 9.2 mph - N/A   Overcast
6:14 AM 62.6 °F - 60.8 °F 94% 29.71 in 1.2 mi SE 9.2 mph - N/A   Overcast
6:33 AM 62.6 °F - 60.8 °F 94% 29.71 in 1.0 mi ESE 6.9 mph - N/A   Overcast
6:54 AM 62.6 °F - 60.8 °F 94% 29.71 in 1.0 mi ESE 8.1 mph - N/A   Overcast
7:14 AM 62.6 °F - 60.8 °F 94% 29.72 in 1.0 mi ESE 6.9 mph - N/A   Overcast
7:33 AM 62.6 °F - 60.8 °F 94% 29.72 in 1.0 mi ESE 8.1 mph - N/A   Overcast
7:54 AM 62.6 °F - 60.8 °F 94% 29.72 in 0.8 mi ESE 6.9 mph - N/A   Overcast
8:13 AM 64.4 °F - 62.6 °F 94% 29.72 in 0.8 mi ESE 9.2 mph - N/A   Overcast
8:34 AM 64.4 °F - 62.6 °F 94% 29.72 in 1.0 mi SE 8.1 mph - N/A   Overcast
8:54 AM 64.4 °F - 62.6 °F 94% 29.71 in 1.2 mi ESE 8.1 mph - N/A   Overcast
9:13 AM 64.4 °F - 62.6 °F 94% 29.70 in 1.2 mi ESE 10.4 mph - N/A   Overcast
9:34 AM 66.2 °F - 64.4 °F 94% 29.70 in 1.8 mi SE 9.2 mph - N/A   Overcast
9:54 AM 66.2 °F - 64.4 °F 94% 29.70 in 2.5 mi SE 10.4 mph - N/A   Overcast
10:14 AM 66.2 °F - 66.2 °F 100% 29.70 in 3.0 mi SE 11.5 mph - N/A   Overcast
10:34 AM 68.0 °F - 66.2 °F 94% 29.69 in 4.0 mi SE 9.2 mph - N/A   Overcast
10:53 AM 69.8 °F - 66.2 °F 88% 29.69 in 5.0 mi SE 8.1 mph - N/A   Overcast
11:14 AM 71.6 °F - 66.2 °F 83% 29.69 in 5.0 mi SE 9.2 mph - N/A   Haze
11:34 AM 73.4 °F - 66.2 °F 78% 29.68 in 7.0 mi SSE 6.9 mph - N/A   Overcast
11:54 AM 75.2 °F - 66.2 °F 73% 29.67 in 10.0 mi SSE 8.1 mph - N/A   Overcast
12:14 PM 77.0 °F - 66.2 °F 69% 29.66 in 10.0 mi SSE 10.4 mph - N/A   Overcast
12:34 PM 78.8 °F - 66.2 °F 65% 29.65 in 10.0 mi SSE 6.9 mph 17.3 mph N/A   Mostly Cloudy
12:54 PM 80.6 °F 82.7 °F 66.2 °F 61% 29.65 in 10.0 mi South 9.2 mph 20.7 mph N/A   Scattered Clouds
1:13 PM 82.4 °F 84.6 °F 66.2 °F 58% 29.64 in 10.0 mi South 11.5 mph 16.1 mph N/A   Clear
1:34 PM 82.4 °F 84.6 °F 66.2 °F 58% 29.64 in 10.0 mi SSE 11.5 mph 20.7 mph N/A   Clear
1:54 PM 84.2 °F 86.6 °F 66.2 °F 55% 29.62 in 10.0 mi SSE 12.7 mph 18.4 mph N/A   Clear
2:13 PM 84.2 °F 86.6 °F 66.2 °F 55% 29.62 in 10.0 mi South 12.7 mph 18.4 mph N/A   Clear
2:34 PM 84.2 °F 86.6 °F 66.2 °F 55% 29.61 in 10.0 mi SSE 11.5 mph 19.6 mph N/A   Clear
2:54 PM 86.0 °F 88.2 °F 66.2 °F 51% 29.61 in 10.0 mi SSE 12.7 mph 19.6 mph N/A   Clear
3:13 PM 86.0 °F 88.2 °F 66.2 °F 51% 29.60 in 10.0 mi SSE 13.8 mph 20.7 mph N/A   Clear
3:34 PM 87.8 °F 90.4 °F 66.2 °F 49% 29.60 in 10.0 mi SSE 13.8 mph 18.4 mph N/A   Clear
3:54 PM 87.8 °F 90.4 °F 66.2 °F 49% 29.60 in 10.0 mi SSE 10.4 mph 16.1 mph N/A   Clear
4:14 PM 87.8 °F 90.4 °F 66.2 °F 49% 29.59 in 10.0 mi SSE 12.7 mph 18.4 mph N/A   Clear
4:34 PM 87.8 °F 90.4 °F 66.2 °F 49% 29.60 in 10.0 mi SSE 16.1 mph - N/A   Clear
4:53 PM 86.0 °F 89.4 °F 68.0 °F 55% 29.60 in 10.0 mi SSE 8.1 mph - N/A   Clear
5:14 PM 87.8 °F 90.4 °F 66.2 °F 49% 29.59 in 10.0 mi SE 11.5 mph - N/A   Clear
5:33 PM 87.8 °F 90.4 °F 66.2 °F 49% 29.59 in 10.0 mi SSE 10.4 mph 18.4 mph N/A   Clear
5:54 PM 87.8 °F 90.4 °F 66.2 °F 49% 29.59 in 10.0 mi SSE 6.9 mph - N/A   Clear
6:13 PM 87.8 °F 90.4 °F 66.2 °F 49% 29.59 in 10.0 mi SSE 9.2 mph 16.1 mph N/A   Clear
6:34 PM 86.0 °F 88.2 °F 66.2 °F 51% 29.58 in 10.0 mi SSE 8.1 mph - N/A   Clear
6:53 PM 84.2 °F 86.6 °F 66.2 °F 55% 29.58 in 10.0 mi SSE 9.2 mph - N/A   Clear
7:14 PM 82.4 °F 84.6 °F 66.2 °F 58% 29.58 in 10.0 mi SSE 5.8 mph - N/A   Clear
7:34 PM 80.6 °F 82.7 °F 66.2 °F 61% 29.58 in 10.0 mi SSE 6.9 mph - N/A   Clear
7:53 PM 80.6 °F 82.7 °F 66.2 °F 61% 29.60 in 10.0 mi SSE 5.8 mph - N/A   Clear
8:14 PM 78.8 °F - 66.2 °F 65% 29.61 in 10.0 mi SSE 5.8 mph - N/A   Clear
8:34 PM 78.8 °F - 66.2 °F 65% 29.61 in 10.0 mi SSE 5.8 mph - N/A   Clear
8:53 PM 78.8 °F - 66.2 °F 65% 29.62 in 10.0 mi SSE 5.8 mph - N/A   Clear
9:14 PM 78.8 °F - 66.2 °F 65% 29.62 in 10.0 mi SSE 5.8 mph - N/A   Clear
9:34 PM 78.8 °F - 68.0 °F 69% 29.61 in 10.0 mi SSE 4.6 mph - N/A   Clear
9:53 PM 77.0 °F - 68.0 °F 74% 29.62 in 10.0 mi SSE 5.8 mph - N/A   Clear
10:14 PM 75.2 °F - 68.0 °F 78% 29.62 in 10.0 mi SE 8.1 mph - N/A   Clear
10:34 PM 75.2 °F - 68.0 °F 78% 29.61 in 10.0 mi SE 6.9 mph - N/A   Clear
10:53 PM 75.2 °F - 68.0 °F 78% 29.61 in 10.0 mi SSE 9.2 mph - N/A   Clear
11:14 PM 75.2 °F - 68.0 °F 78% 29.60 in 10.0 mi SE 8.1 mph - N/A   Clear
11:34 PM 75.2 °F - 68.0 °F 78% 29.62 in 10.0 mi SSE 5.8 mph - N/A   Clear
11:53 PM 75.2 °F - 68.0 °F 78% 29.64 in 10.0 mi South 3.5 mph - N/A Rain Light Rain